{"data":{"norad_id":52462,"intl_designator":"2022-049M","name":"STARLINK-3903","alt_names":[],"object_type":"PAYLOAD","status":"ACTIVE","operator":null,"country":"US","launch_date":"2022-05-06","launch_site_code":"AFETR","launch_vehicle":null,"mission":null,"orbit_class":"UNKNOWN","rcs_meters":null,"size_class":null,"mass_kg":null,"dimensions":null,"purposes":["comms"],"wikipedia_slug":null,"has_3d_model":false,"image_url":null,"decayed_at":null,"tle_current":{"epoch":"2026-09-19T23:37:51.695040Z","epoch_age_seconds":107846,"freshness":"FRESH","line1":"1 52462U 22049M   26262.98462610  .00001022  00000+0  40199-4 0  9991","line2":"2 52462  53.1596 256.0766 0001313  83.6814 276.4339 15.35399755241722","mean_motion":15.35399755,"eccentricity":0.0001313,"inclination_deg":53.1596,"raan_deg":256.0766,"arg_perigee_deg":83.6814,"mean_anomaly_deg":276.4339,"bstar":4.0199e-5,"rev_number":24172,"period_min":93.78665036976,"perigee_km":458.83555776295,"apogee_km":460.63118252215,"semimajor_km":6837.8703701425,"source":"CELESTRAK","updated_at":"2026-09-20T09:00:40.033522Z"}}}